Theta_e
296 296 297 297 297 300 302 306 306 306 306 306 305 305 305 305 305 306 307 307 312 318 322 329 336 335 336 336 333 330 330 330 331 332 333 330 326 324 323 321 319 319 320
297 297 297 297 298 299 300 301 302 305 305 305 305 305 305 304 303 304 305 306 306 309 314 317 323 322 332 334 335 334 333 331 330 331 331 332 332 330 327 323 321 319 319
298 297 297 298 299 297 299 300 302 302 303 304 305 305 304 304 303 303 303 304 304 305 307 309 313 314 321 330 329 329 331 338 334 332 331 331 331 331 331 329 325 321 319
298 298 298 297 297 298 299 299 301 301 301 301 302 303 304 304 304 303 303 303 303 303 304 304 305 308 311 319 325 327 326 327 335 334 333 332 331 331 331 331 330 326 321
298 297 298 298 297 298 298 298 299 301 302 301 301 303 303 302 302 302 302 303 303 303 303 303 303 303 304 308 315 324 327 328 330 333 333 334 332 332 331 331 331 331 329
297 297 297 297 298 298 297 297 297 300 301 301 300 300 300 301 300 301 302 302 304 303 302 302 301 300 300 301 304 309 319 325 331 332 334 335 334 334 333 332 331 331 331
296 296 297 298 298 297 298 297 296 298 300 301 301 300 300 299 299 299 300 302 302 303 303 300 301 302 303 303 301 301 303 307 313 320 331 332 336 333 333 333 333 332 332
296 296 296 297 297 298 298 298 297 296 298 301 301 300 300 299 300 300 302 302 301 299 299 300 302 302 302 303 307 305 303 303 303 305 310 323 329 332 334 334 333 333 332
296 296 296 296 297 298 298 298 298 298 298 300 300 300 300 300 300 300 300 300 299 299 301 302 302 303 303 304 304 306 309 311 308 305 305 307 320 329 331 334 334 334 333
298 297 296 296 296 297 298 298 298 298 297 298 299 300 300 300 300 300 300 299 300 300 300 300 302 302 302 302 300 301 302 305 312 313 309 307 313 318 328 330 326 334 334
298 298 297 296 296 296 298 298 297 297 298 297 297 298 300 300 301 301 300 300 300 299 298 298 302 302 301 300 301 303 304 303 303 308 313 315 311 318 322 325 332 337 333
298 298 298 297 296 296 297 297 298 298 298 297 297 297 298 299 300 300 300 300 300 299 298 298 300 301 301 301 302 301 301 301 301 302 303 309 317 317 318 320 322 329 331
298 298 299 298 297 296 296 298 298 298 297 297 297 297 297 298 299 299 300 300 300 299 298 299 301 301 301 301 301 300 299 297 298 300 301 301 305 314 317 317 318 323 330
298 299 299 299 297 296 297 298 297 298 298 298 297 297 297 297 298 298 300 300 300 299 299 298 298 300 300 299 299 298 298 300 301 301 302 302 301 302 311 315 315 314 321
297 299 299 297 296 296 296 297 298 298 298 298 298 298 298 297 298 298 298 299 299 299 298 298 299 299 299 299 299 299 297 297 299 299 300 302 304 303 302 306 312 311 313
297 297 296 296 296 296 296 297 297 298 298 297 298 298 298 298 297 297 298 298 298 298 298 298 298 299 299 300 299 299 298 298 298 299 299 300 302 303 304 304 307 306 312
297 297 296 295 296 296 295 297 298 297 296 297 297 297 297 298 298 298 298 298 299 298 298 299 298 298 298 299 299 298 298 299 300 299 300 301 301 301 302 304 306 308 308
298 297 296 296 296 296 296 296 296 296 297 297 297 296 297 297 297 298 298 298 298 298 298 298 298 298 297 299 299 298 298 298 299 299 300 301 301 301 300 302 303 304 308
298 297 296 296 296 296 296 296 295 296 296 297 296 297 297 297 297 296 296 297 298 298 297 298 298 299 299 299 298 298 299 299 297 300 303 302 302 304 300 301 302 305 312
298 298 297 297 297 297 297 296 296 296 296 296 296 296 296 296 297 297 297 297 297 297 298 298 298 298 299 299 298 298 298 298 298 300 303 307 309 310 304 300 302 308 313
296 296 297 298 298 298 298 297 297 296 296 296 296 296 297 296 296 297 297 297 298 297 298 298 298 298 299 299 298 298 298 298 299 300 303 305 309 310 311 312 308 312 318
294 294 295 295 295 299 301 298 299 300 298 296 296 296 297 296 297 298 299 298 297 297 298 298 298 298 299 298 298 298 298 298 299 298 299 305 306 306 309 312 314 316 319
293 294 294 294 295 295 297 300 300 300 299 298 297 297 296 297 297 298 298 299 299 299 299 299 299 299 299 299 299 299 299 299 298 296 298 298 297 298 300 300 300 306 307
293 294 294 293 294 294 294 296 299 300 298 297 298 297 297 298 297 297 297 297 297 297 297 297 298 298 299 299 300 300 299 298 296 295 296 294 294 295 296 297 297 297 297
293 293 293 294 293 294 293 294 294 294 294 294 295 295 296 296 297 298 297 298 297 297 296 298 299 299 299 299 299 298 295 295 294 294 294 293 293 293 293 293 294 295 295
291 292 293 293 294 294 294 293 293 293 293 293 293 293 293 293 293 294 294 294 293 293 293 293 293 293 292 292 293 294 294 294 294 293 293 293 293 294 292 292 292 293 293
Wind_Speed
39 36 30 26 24 26 22 23 25 24 22 24 24 24 23 23 23 22 21 20 21 21 19 21 29 25 36 31 27 25 24 23 23 22 20 16 16 17 17 17 17 16 15
33 32 31 30 26 23 24 23 23 23 20 18 21 23 23 22 22 23 23 22 21 22 23 21 24 18 16 19 23 25 23 24 25 25 24 23 20 18 19 19 18 18 18
35 29 33 32 29 27 26 26 26 26 31 24 24 27 28 24 22 21 22 23 23 23 25 26 25 21 13 18 30 23 20 23 30 27 27 27 26 23 20 20 21 21 21
28 32 35 36 33 33 30 26 22 24 29 27 29 27 28 31 29 26 22 22 22 23 24 25 26 26 23 18 15 27 27 36 26 23 28 29 29 28 26 23 21 22 22
30 31 34 37 37 35 34 33 28 27 30 31 28 26 26 24 25 23 23 22 25 26 25 25 25 26 27 26 22 20 28 31 26 24 27 30 31 31 30 28 26 23 23
42 44 37 36 35 35 39 38 34 25 24 27 26 26 25 25 25 27 28 27 23 25 26 24 22 22 25 27 27 27 27 27 27 19 19 28 32 33 33 32 31 29 27
27 31 32 33 33 36 40 38 39 36 27 29 32 28 26 25 25 26 25 25 27 27 26 23 18 16 18 19 24 26 28 29 30 27 24 23 26 35 36 36 35 35 33
32 27 28 36 36 35 32 32 33 38 34 23 28 26 25 26 27 25 23 24 26 21 21 23 20 17 19 20 19 21 25 26 27 30 32 31 29 28 42 37 38 38 37
29 29 29 29 34 32 33 30 23 25 29 27 25 26 15 23 21 24 25 24 25 20 12 8 12 17 21 21 22 23 22 24 25 28 29 31 33 30 28 32 42 39 36
27 27 28 28 29 35 37 33 28 29 30 27 23 25 31 30 23 23 26 22 19 21 21 17 12 15 19 23 21 20 22 25 26 25 28 32 31 33 30 26 37 32 35
30 27 25 26 26 32 31 32 34 36 33 34 30 24 26 24 27 28 23 26 27 27 27 21 13 14 17 16 17 17 19 22 27 29 28 29 36 36 31 28 32 35 38
31 28 24 22 23 26 30 35 31 28 25 27 29 30 28 24 25 27 29 31 31 30 22 21 20 18 18 18 19 21 23 26 28 30 33 34 33 36 38 36 38 43 37
29 28 26 23 21 22 25 27 28 29 31 33 30 29 32 31 26 28 29 33 32 29 24 18 17 19 19 19 22 27 31 29 30 29 32 35 39 39 37 43 40 42 31
29 30 25 21 16 19 13 21 28 28 24 25 28 32 34 31 28 25 26 25 28 26 27 27 27 25 26 27 29 26 25 27 29 30 30 34 38 42 45 43 43 43 41
27 24 11 12 9 12 16 12 20 25 26 23 25 26 24 25 25 25 27 24 26 26 29 28 26 25 25 25 25 26 28 30 33 36 38 37 36 40 43 48 48 46 42
22 20 13 7 5 5 7 16 13 21 23 25 27 29 27 19 24 28 25 26 28 29 30 28 27 23 21 22 25 27 29 29 33 36 37 40 40 40 42 44 46 49 46
21 18 13 7 4 4 6 10 8 18 19 21 23 23 28 31 22 22 25 23 22 23 28 28 28 29 29 28 29 30 30 31 32 34 35 37 40 41 42 43 44 42 46
23 18 14 10 8 6 5 7 9 12 10 18 16 15 18 16 30 32 23 24 25 28 28 26 26 28 31 28 30 32 31 31 34 34 36 36 40 40 40 42 44 44 42
20 17 14 11 10 8 5 4 6 8 12 13 14 18 19 20 21 23 25 38 28 29 33 27 25 23 24 27 27 29 30 30 31 33 31 34 34 36 42 43 42 44 40
27 19 17 14 11 10 10 9 7 11 15 10 13 14 14 16 15 17 22 22 25 34 30 27 27 26 25 28 27 27 28 32 32 30 29 21 24 25 35 41 43 44 41
40 37 26 15 12 15 12 7 5 6 7 12 14 13 16 16 17 16 18 19 19 20 26 27 28 28 24 28 28 30 33 28 26 28 25 18 15 16 17 23 32 36 36
41 42 40 39 35 18 9 11 13 17 5 8 7 8 13 12 13 16 18 17 18 19 22 24 26 29 29 30 31 32 24 23 17 7 13 12 13 16 18 22 24 33 43
42 44 44 46 42 33 16 4 10 13 15 3 5 4 5 7 8 11 13 12 15 18 22 24 26 28 31 30 30 28 24 22 18 13 17 20 28 27 25 27 23 39 43
40 41 43 46 46 40 34 24 8 6 9 3 1 6 9 8 12 13 15 17 18 21 24 28 31 31 28 27 26 24 24 21 19 19 23 24 26 33 32 26 15 23 22
37 38 40 39 45 42 41 41 42 41 38 33 26 15 9 6 5 14 17 14 11 7 1 10 14 15 18 18 19 20 23 27 25 21 24 24 19 22 25 26 21 24 22
31 33 36 38 41 39 38 35 39 40 40 38 34 31 26 23 17 10 13 16 18 17 18 20 22 23 22 18 20 22 29 29 26 18 14 20 18 15 17 15 16 17 19
Wind_Direction
296 294 289 291 288 268 275 271 273 267 261 271 266 263 261 254 246 250 248 245 245 245 250 239 226 235 222 214 214 219 221 222 223 223 228 230 222 227 225 224 220 220 221
292 286 285 285 284 280 275 270 278 265 255 262 268 270 270 266 254 247 251 250 250 249 250 249 249 282 262 227 204 223 227 229 228 229 229 230 231 234 233 228 227 225 226
287 282 277 279 279 282 279 269 264 271 266 263 266 268 272 274 270 260 254 256 254 254 254 256 256 259 261 240 239 250 240 234 231 227 229 232 235 235 238 237 234 231 229
281 280 280 273 276 273 275 270 259 262 263 264 265 268 269 274 274 274 262 257 258 258 253 255 258 259 254 248 234 234 242 256 262 224 234 234 235 237 238 241 239 238 236
283 282 276 271 266 269 273 268 266 264 263 263 260 259 263 270 275 272 270 264 259 259 259 259 263 264 259 250 243 238 232 240 245 243 241 238 236 237 239 239 240 239 241
283 282 277 272 270 270 267 267 266 264 259 251 254 256 260 265 268 269 270 270 269 266 263 266 267 267 267 256 250 245 241 239 235 231 240 241 240 239 238 238 240 240 241
294 276 267 267 268 266 262 266 261 260 262 253 256 251 256 264 268 268 264 267 270 270 273 265 256 275 268 265 256 250 249 247 243 241 240 251 245 242 240 240 239 240 241
303 294 277 266 263 267 264 265 260 255 259 247 249 248 253 260 262 262 258 266 274 275 267 256 254 271 275 267 267 261 254 254 252 252 244 238 243 251 243 239 243 238 239
307 295 289 272 256 255 260 261 252 242 247 249 246 245 239 244 259 258 260 265 272 261 255 253 254 257 265 271 271 267 266 258 256 252 253 248 240 246 259 252 244 236 240
312 301 291 282 263 253 251 253 249 250 251 249 248 243 246 253 251 255 261 261 256 254 258 270 256 264 265 270 277 276 271 268 262 259 254 250 249 245 251 257 259 235 246
319 309 298 283 273 253 246 250 253 255 248 254 253 252 243 253 250 251 258 260 262 271 270 273 257 257 267 268 274 272 276 276 271 263 257 251 246 248 246 240 229 246 243
316 315 304 289 276 258 250 245 248 251 243 244 247 252 250 250 251 251 255 261 266 275 273 265 259 266 266 260 264 275 282 285 282 275 265 259 251 249 248 248 240 241 252
327 322 311 297 268 261 248 238 243 248 248 246 242 242 244 249 253 258 257 255 261 264 271 266 253 257 266 274 276 280 286 287 281 279 272 265 260 254 252 251 248 242 251
337 328 310 301 268 248 238 237 240 240 240 245 241 242 245 247 245 249 254 249 255 251 261 269 264 270 276 284 284 286 284 280 280 278 275 269 263 259 251 252 252 250 246
350 343 357 308 275 261 255 240 241 238 236 236 240 243 243 240 237 241 248 246 246 257 261 268 272 272 277 280 283 287 289 278 276 277 274 271 267 262 258 254 252 251 248
2 4 2 330 278 263 272 235 232 230 233 239 233 233 234 227 235 239 238 240 244 250 260 266 266 276 283 283 286 291 293 282 277 281 281 274 267 264 257 253 252 251 246
7 9 7 8 351 296 257 236 236 240 244 234 242 240 237 230 221 220 229 236 239 240 251 260 265 269 277 282 285 288 289 287 286 285 283 273 265 261 256 250 245 246 242
10 11 12 10 0 336 292 270 249 237 244 245 247 256 239 238 238 236 235 227 238 242 251 264 268 270 269 271 279 285 291 288 290 289 288 273 265 259 254 246 244 242 241
23 11 11 4 354 354 340 304 265 248 239 241 242 242 240 243 238 241 245 238 239 242 247 255 262 258 263 269 277 285 288 292 291 293 292 287 268 257 246 238 238 233 237
32 24 11 356 344 329 311 304 274 258 250 241 248 244 242 243 239 237 236 239 240 242 248 246 259 254 262 262 272 278 287 300 294 295 295 274 279 264 242 236 233 230 236
40 31 22 2 355 346 279 276 288 269 247 244 237 239 235 237 243 243 234 232 230 238 237 238 249 253 255 258 269 277 284 281 288 291 267 264 228 214 199 217 230 230 226
43 37 32 27 20 15 346 244 264 259 230 225 226 253 245 235 242 241 239 241 240 245 237 237 247 253 253 262 267 275 273 273 256 236 134 167 172 153 176 178 196 194 193
43 45 35 35 31 27 14 319 251 270 259 164 211 253 218 233 246 246 245 233 233 231 237 244 252 258 263 269 271 268 266 256 230 175 148 132 116 110 111 116 117 158 164
41 38 42 40 38 40 50 61 89 160 160 184 270 211 226 241 234 243 244 251 252 252 253 256 261 264 262 263 267 263 257 218 167 141 135 102 102 100 108 108 114 113 124
45 43 44 46 45 41 50 64 72 75 74 70 67 65 61 70 190 239 243 245 247 239 2 268 261 255 247 246 249 244 192 168 146 130 124 110 106 91 96 106 111 109 111
46 44 46 46 48 48 45 53 68 72 74 72 67 64 60 67 77 91 115 120 109 104 111 111 112 115 119 124 159 171 164 155 145 140 145 128 127 115 84 101 108 120 120